Home   Weather   Pamplona   Past weeks

Flag for Spain Past Weather in Pamplona, Spain — Yesterday and Last 2 Weeks

70 °F

Passing clouds.

Feels Like: 70 °F
Forecast: 53 / 72 °F
Wind: No wind

Location: Pamplona / Noain

Current Time: Oct 25, 2016 at 7:32:58 PM

Latest Report: Oct 25, 2016 at 7:00 PM

Visibility: N/A

Pressure: 30.12 "Hg

Humidity: 64%

Dew Point: 57 °F

Location of PamplonaLocation

Past Weather in Pamplona — Graph


Pamplona Temperature Yesterday

Maximum temperature yesterday: 63 °F (at 1:30 PM)
Minimum temperature yesterday: 55 °F (at 2:30 AM)
Average temperature yesterday: 58 °F

High & Low Weather Summary for the Past Weeks

High75 °F (Oct 25, 5:00 PM)100% (Oct 13, 6:30 AM)30.36 "Hg (Oct 13, 6:30 AM)
Low16 °F (Oct 22, 4:30 AM)24% (Oct 11, 3:30 PM)29.56 "Hg (Oct 13, 5:30 AM)
Average56 °F73%29.96 "Hg
* Reported Oct 10 6:00 PM — Oct 25 6:30 PM, Pamplona, Weather by CustomWeather, © 2016

Note: Actual official high and low records may vary slightly from our data, if they occured in-between our weather recording intervals... More about our weather records


Pamplona Weather History for the Previous 24 Hours

Scroll right to see more
Time TempWeatherWind HumidityBarometerVisibility
6:30 PM
Tue, Oct 25
72 °FScattered clouds.2 mph61%30.12 "HgN/A
6:00 PM73 °FScattered clouds.6 mph57%30.12 "HgN/A
5:30 PM73 °FScattered clouds.2 mph57%30.12 "HgN/A
5:00 PM75 °FScattered clouds.2 mph54%30.09 "HgN/A
4:30 PM73 °FScattered clouds.3 mph57%30.09 "HgN/A
4:00 PM73 °FScattered clouds.6 mph57%30.09 "HgN/A
3:30 PM73 °FScattered clouds.7 mph57%30.12 "HgN/A
3:00 PM73 °FScattered clouds.9 mph57%30.12 "HgN/A
2:30 PM72 °FScattered clouds.5 mph65%30.09 "HgN/A
2:00 PM70 °FScattered clouds.3 mph69%30.09 "HgN/A
1:30 PM70 °FScattered clouds.1 mph64%30.09 "HgN/A
1:00 PM68 °FScattered clouds.1 mph69%30.12 "HgN/A
12:30 PM64 °FScattered clouds.1 mph78%30.12 "HgN/A
12:00 PM61 °FPartly sunny.1 mph83%30.12 "HgN/A
11:30 AM57 °FPartly sunny.5 mph88%30.12 "HgN/A
11:00 AM55 °FPartly sunny.1 mph94%30.09 "HgN/A
10:30 AM54 °FPartly sunny.No wind100%30.09 "HgN/A
10:00 AM54 °FPartly sunny.1 mph94%30.09 "HgN/A
9:30 AM52 °FPartly sunny.No wind100%30.09 "HgN/A
9:00 AM52 °FPartly sunny.No wind94%30.09 "HgN/A
8:30 AM52 °FPassing clouds.2 mph94%30.07 "HgN/A
8:00 AM52 °FSprinkles. Passing clouds.3 mph94%30.07 "Hg5 mi
7:30 AM52 °FPassing clouds.1 mph94%30.04 "HgN/A
7:00 AM52 °FPassing clouds.2 mph94%30.04 "HgN/A
6:30 AM52 °FPassing clouds.No wind94%30.04 "HgN/A
6:00 AM52 °FPassing clouds.1 mph94%30.04 "HgN/A
5:30 AM52 °FPassing clouds.No wind94%30.04 "HgN/A
5:00 AM52 °FClear.No wind94%30.04 "Hg10 mi
4:30 AM52 °FClear.No wind94%30.04 "Hg10 mi
4:00 AM52 °FClear.2 mph94%30.04 "Hg10 mi
3:30 AM54 °FClear.1 mph88%30.04 "Hg10 mi
3:00 AM52 °FClear.No wind94%30.04 "Hg10 mi
2:30 AM54 °FClear.1 mph88%30.04 "Hg10 mi
2:00 AM54 °FClear.No wind88%30.07 "Hg10 mi
1:30 AM54 °FClear.1 mph88%30.07 "Hg10 mi
1:00 AM54 °FClear.1 mph88%30.04 "Hg10 mi
12:30 AM54 °FClear.2 mph88%30.04 "Hg10 mi
12:00 AM54 °FPassing clouds.1 mph88%30.04 "HgN/A
11:30 PM
Mon, Oct 24
55 °FPassing clouds.1 mph82%30.01 "HgN/A
11:00 PM55 °FPassing clouds.1 mph82%30.01 "HgN/A
10:30 PM57 °FPassing clouds.No wind77%30.01 "HgN/A
10:00 PM55 °FPassing clouds.2 mph82%29.98 "HgN/A
9:30 PM57 °FPassing clouds.6 mph77%29.98 "HgN/A
9:00 PM59 °FPassing clouds.3 mph72%29.98 "HgN/A
8:30 PM59 °FPassing clouds.7 mph72%29.98 "HgN/A
8:00 PM59 °FPassing clouds.3 mph72%29.95 "HgN/A
7:30 PM61 °FPassing clouds.5 mph68%29.95 "HgN/A
7:00 PM61 °FScattered clouds.9 mph72%29.92 "HgN/A
Weather by CustomWeather, © 2016

See weather overviewHow to use our weather pages